Wind_Speed
24 24 24 24 24 23 23 23 23 23 23 22 22 22 22 23 23 23 24 24 23 23 23 23 23 23 23 23 22 22 22 22 22 21 20 21 22 22 23 23 23 23 24
24 24 23 23 23 23 22 22 22 22 21 21 21 22 21 22 22 22 22 22 22 22 22 22 22 22 22 21 20 20 20 21 21 21 21 21 22 22 22 23 22 22 23
24 24 23 23 21 21 21 21 21 21 21 21 21 21 20 20 21 21 21 21 21 21 21 21 21 21 20 19 18 18 19 20 21 20 20 20 20 21 22 22 22 22 22
24 23 22 21 20 20 20 21 21 21 21 20 19 20 19 20 20 20 21 21 20 20 19 19 18 18 19 18 18 18 18 19 19 19 19 19 18 19 20 20 21 21 21
23 21 20 19 19 19 19 20 20 20 19 18 19 19 19 20 20 20 20 19 19 19 19 18 18 18 18 19 19 18 18 18 18 19 18 18 17 18 18 19 20 20 20
21 19 20 19 19 19 19 20 20 20 19 18 18 19 19 19 19 19 19 19 19 19 18 18 17 18 18 18 18 18 18 18 18 18 17 17 17 17 18 19 19 19 19
20 19 18 18 18 18 18 19 19 18 17 17 18 18 19 19 19 19 18 19 19 19 18 17 17 17 18 17 17 18 18 18 18 18 18 18 17 18 18 18 19 19 19
18 17 17 17 17 17 17 17 17 17 17 18 18 18 18 18 19 18 18 18 18 18 18 18 18 18 18 17 17 18 18 17 18 18 18 18 18 18 18 18 19 19 19
17 17 17 16 16 17 16 15 16 16 16 17 18 17 18 18 18 17 18 17 17 17 17 17 18 18 18 17 17 17 17 17 17 17 17 17 17 17 17 18 18 18 18
17 16 16 15 15 15 15 14 15 16 16 17 16 16 17 17 17 17 17 17 17 17 17 17 17 17 17 17 17 17 17 17 17 16 16 16 17 17 17 18 18 18 18
16 15 14 14 14 14 14 14 14 15 15 15 15 16 16 16 16 16 16 16 16 17 17 17 17 17 17 17 17 16 17 17 17 16 16 16 16 16 17 17 17 17 18
14 14 13 13 13 13 13 13 14 13 13 14 15 15 16 15 16 16 16 16 16 17 17 18 18 18 18 18 17 17 17 17 17 17 17 17 17 16 16 16 16 17 18
12 12 12 12 12 11 11 12 12 13 13 14 15 15 15 16 16 16 16 16 17 18 18 19 18 18 18 18 18 17 17 17 18 18 18 18 17 17 17 17 17 18 19
11 11 11 10 10 9 9 10 11 12 13 13 14 15 15 16 16 16 16 16 17 18 19 19 19 19 19 19 19 18 18 18 18 18 18 18 17 17 17 17 18 18 18
9 9 9 8 8 8 8 9 10 11 12 14 14 15 15 15 15 16 17 17 18 18 19 19 19 19 19 19 19 20 19 19 19 19 19 18 18 18 18 18 18 18 19
8 8 7 7 6 7 8 9 10 11 13 14 14 15 15 15 15 16 16 17 18 19 19 19 20 20 20 19 20 20 21 20 20 20 20 19 19 18 18 19 19 19 19
7 7 7 6 6 7 8 10 10 12 13 14 15 16 16 16 16 17 17 17 18 19 19 20 20 21 20 20 21 21 21 21 21 21 21 20 20 19 19 19 20 19 19
6 6 6 6 7 8 9 10 11 12 13 14 16 17 17 17 17 17 18 18 19 20 20 21 21 21 21 22 23 23 22 22 22 22 21 21 21 20 20 20 21 20 20
6 5 5 5 7 8 9 10 11 12 14 15 17 17 17 17 18 18 19 19 20 20 21 21 22 22 23 23 23 23 23 23 22 21 22 22 22 21 21 20 21 21 21
5 5 5 6 7 8 10 11 12 13 14 15 16 17 17 17 18 19 19 20 20 21 22 23 23 24 24 24 24 24 23 23 22 22 23 23 22 22 21 21 21 21 21
4 5 6 7 9 9 10 11 12 13 15 16 17 17 18 18 19 19 20 20 21 22 22 23 24 24 24 23 23 23 24 24 23 23 23 22 22 21 22 22 22 22 21
4 5 7 8 9 10 11 12 13 14 15 16 17 17 18 18 19 20 21 21 22 23 23 24 25 25 24 24 24 24 24 24 23 23 23 22 21 22 22 22 22 22 22
6 7 7 8 9 10 12 13 14 14 15 17 17 18 19 19 20 21 22 23 24 24 24 25 26 25 25 25 24 24 24 24 24 24 24 23 23 23 23 23 23 23 23
6 7 7 8 9 11 13 13 14 14 16 17 18 18 19 20 21 22 23 24 24 25 25 25 25 25 25 25 25 25 25 25 25 24 25 25 24 24 24 24 24 24 24
6 7 7 8 10 11 12 13 14 15 16 18 18 19 20 20 21 23 24 25 25 26 26 25 26 26 26 27 27 27 27 26 26 25 25 25 25 25 25 24 24 25 24
6 7 8 9 10 11 12 13 14 15 16 17 18 19 20 21 23 25 26 26 26 26 26 26 26 27 28 28 27 28 28 27 27 27 27 27 26 26 25 24 24 24 24
Wind_Direction
303 304 302 302 305 308 309 309 310 313 316 315 314 314 315 315 313 310 309 307 304 303 302 302 299 297 297 296 292 289 288 289 290 286 282 279 278 276 270 268 268 266 264
303 304 304 303 305 307 309 309 309 311 313 317 318 317 316 316 317 317 317 314 309 307 305 303 302 300 299 297 294 293 291 290 289 287 283 279 278 275 273 270 269 269 267
301 302 303 303 305 306 309 309 311 313 314 316 318 318 321 321 321 320 318 318 316 313 309 307 306 305 302 300 298 296 294 292 291 289 285 281 278 276 274 274 272 272 270
299 299 301 302 305 308 311 312 312 314 313 314 318 321 324 323 323 321 322 322 322 320 316 314 312 309 306 303 301 300 298 297 296 292 290 285 281 278 276 275 274 274 271
299 299 300 302 303 305 309 314 314 313 314 317 319 321 323 324 324 325 325 325 323 322 319 316 313 309 306 305 304 305 305 303 300 296 294 289 285 281 279 277 274 273 271
298 299 300 301 301 302 305 309 317 314 315 317 319 323 324 324 322 322 324 324 324 322 318 314 313 312 310 307 306 307 307 304 302 300 297 293 287 282 280 278 277 273 271
298 298 301 304 304 304 305 309 314 316 318 318 321 324 324 324 323 323 323 325 326 326 324 321 318 316 315 311 309 308 309 307 303 301 297 295 290 284 281 279 278 276 273
299 298 301 304 304 307 309 310 312 318 321 322 323 325 324 323 324 324 325 325 326 326 326 326 323 321 316 313 311 311 312 310 306 302 298 295 291 287 281 277 277 277 276
301 300 303 303 303 306 309 313 315 321 324 326 327 325 326 326 326 327 329 329 328 329 331 331 328 326 321 318 316 314 313 313 312 308 304 300 295 291 286 282 282 282 278
301 300 304 305 303 306 310 313 320 323 325 326 326 328 328 328 328 330 332 333 333 332 333 333 334 332 327 321 318 316 315 314 314 311 306 303 299 294 290 286 283 282 280
303 302 308 308 307 307 310 313 318 322 326 329 331 333 332 332 333 335 337 337 336 335 334 335 335 334 332 329 326 322 319 318 316 314 311 309 306 300 296 293 288 286 282
306 305 309 311 311 310 309 312 320 323 325 330 332 334 333 336 338 337 336 337 337 337 337 338 338 339 338 335 331 329 328 326 325 322 317 313 308 304 299 295 292 289 286
307 307 308 313 313 311 315 319 325 329 329 332 334 333 333 336 337 336 336 336 336 336 337 338 338 339 338 336 334 332 330 328 325 322 319 316 313 309 304 298 294 292 290
306 308 310 313 313 312 325 332 333 336 338 339 340 339 339 338 337 338 338 336 336 338 337 337 335 336 336 334 333 332 330 329 326 323 321 317 313 309 304 300 295 291 286
309 312 316 316 314 318 329 336 340 342 344 342 341 342 342 341 340 341 341 340 340 339 339 338 338 337 335 334 335 334 329 327 326 325 322 321 317 311 307 304 299 293 288
315 327 332 326 324 328 337 340 343 345 345 346 345 345 345 345 345 343 341 340 341 342 341 339 339 338 336 334 333 332 331 328 327 325 323 320 318 313 310 307 302 297 291
332 336 334 336 337 337 341 343 344 346 347 348 347 345 345 344 343 341 340 339 339 339 339 338 336 336 334 334 334 333 331 329 328 326 324 320 317 314 311 308 306 301 295
343 342 336 337 339 342 343 345 346 347 347 346 344 342 343 343 341 341 340 338 338 338 338 337 337 336 335 333 332 331 330 328 327 325 324 322 318 315 313 308 305 303 298
343 344 345 343 339 343 344 346 348 346 344 344 343 343 344 344 342 340 339 338 339 339 339 339 339 337 336 334 333 332 330 329 327 326 326 325 322 318 315 312 310 307 304
339 342 341 339 336 340 341 342 344 343 341 343 344 344 344 343 342 341 340 339 339 339 338 337 337 336 336 335 334 334 333 332 330 327 325 325 324 321 317 315 313 310 308
341 343 342 340 337 338 339 339 341 343 342 344 344 344 344 343 343 343 342 341 339 338 337 336 335 334 334 334 336 335 335 334 331 327 325 325 324 322 320 317 316 314 310
340 343 345 341 340 341 341 340 340 340 343 345 345 344 344 344 344 344 343 341 339 338 335 334 334 333 334 336 337 337 336 335 333 330 328 324 322 322 322 319 315 313 311
339 342 344 342 341 341 340 340 340 341 344 347 346 344 344 344 345 344 342 341 340 339 337 336 335 335 336 338 338 338 336 335 334 332 331 329 326 324 322 320 317 314 311
335 337 339 342 345 343 341 341 341 342 344 347 348 346 344 345 346 345 342 340 340 339 338 338 338 338 337 337 337 337 336 334 332 331 330 329 327 324 322 320 318 316 313
331 334 334 335 338 341 343 343 344 345 345 347 348 347 345 346 346 344 342 341 340 339 339 339 339 339 338 336 336 336 335 335 333 332 331 329 328 326 323 321 319 318 316
327 332 332 333 334 337 341 344 346 347 346 348 349 348 346 345 344 343 342 342 341 341 341 340 339 339 338 336 336 337 336 335 334 333 332 331 329 328 327 325 323 320 317
Height
5782 5779 5776 5774 5771 5769 5765 5762 5759 5756 5752 5750 5747 5744 5740 5737 5733 5730 5726 5722 5719 5717 5714 5712 5710 5708 5706 5705 5703 5702 5701 5700 5699 5698 5697 5696 5696 5696 5696 5696 5696 5697 5697
5776 5774 5772 5769 5767 5764 5761 5758 5754 5751 5748 5745 5743 5740 5736 5733 5729 5725 5721 5718 5715 5712 5710 5708 5705 5703 5701 5699 5698 5697 5696 5694 5693 5693 5692 5691 5690 5690 5690 5690 5690 5690 5691
5771 5769 5767 5765 5762 5759 5756 5753 5750 5747 5744 5741 5739 5736 5733 5729 5726 5722 5718 5715 5712 5709 5706 5704 5701 5699 5697 5695 5693 5692 5691 5689 5688 5687 5686 5685 5684 5683 5683 5683 5684 5684 5684
5765 5764 5762 5760 5757 5755 5752 5749 5746 5743 5740 5738 5735 5732 5729 5726 5722 5718 5715 5712 5709 5705 5702 5700 5697 5695 5693 5691 5689 5688 5686 5684 5683 5681 5680 5679 5678 5678 5677 5677 5678 5677 5678
5760 5758 5756 5755 5753 5750 5748 5745 5742 5740 5737 5734 5731 5729 5725 5722 5719 5715 5712 5709 5706 5702 5699 5696 5694 5692 5689 5687 5685 5683 5681 5680 5678 5676 5675 5674 5673 5672 5672 5672 5672 5672 5672
5754 5753 5751 5749 5748 5746 5743 5741 5739 5736 5733 5731 5728 5725 5722 5719 5716 5713 5709 5706 5703 5699 5696 5693 5691 5688 5686 5684 5682 5679 5677 5675 5673 5672 5670 5669 5668 5667 5666 5666 5666 5666 5666
5749 5747 5746 5744 5743 5741 5739 5737 5735 5732 5730 5727 5725 5722 5719 5716 5713 5710 5706 5703 5700 5697 5693 5690 5688 5685 5682 5680 5678 5675 5673 5671 5669 5667 5665 5664 5663 5662 5661 5660 5660 5660 5660
5743 5742 5741 5740 5739 5737 5735 5733 5731 5729 5727 5724 5721 5718 5715 5712 5710 5706 5703 5700 5697 5694 5690 5687 5684 5681 5678 5676 5674 5671 5669 5667 5664 5662 5660 5659 5657 5656 5655 5655 5654 5654 5654
5739 5738 5737 5735 5734 5733 5731 5729 5728 5726 5723 5721 5718 5715 5712 5709 5706 5704 5700 5697 5694 5691 5688 5684 5681 5678 5675 5672 5670 5668 5665 5663 5660 5658 5655 5654 5652 5651 5650 5649 5649 5648 5648
5734 5733 5732 5731 5730 5729 5727 5725 5724 5722 5720 5718 5715 5712 5709 5707 5704 5701 5698 5695 5691 5688 5685 5682 5678 5675 5672 5669 5666 5664 5662 5659 5656 5654 5652 5650 5648 5646 5645 5644 5643 5643 5642
5730 5729 5728 5727 5726 5725 5723 5722 5720 5719 5717 5714 5712 5709 5707 5704 5701 5698 5695 5692 5689 5686 5683 5679 5676 5672 5669 5666 5663 5660 5658 5655 5652 5650 5648 5645 5643 5641 5640 5639 5638 5637 5637
5726 5726 5725 5724 5723 5721 5720 5718 5717 5715 5714 5711 5709 5706 5704 5701 5698 5695 5693 5690 5687 5684 5681 5677 5674 5670 5667 5664 5661 5657 5654 5651 5649 5646 5644 5641 5639 5637 5635 5634 5633 5632 5631
5723 5723 5722 5721 5719 5718 5717 5715 5714 5713 5711 5708 5706 5703 5701 5699 5696 5693 5690 5687 5684 5681 5678 5674 5671 5668 5665 5661 5658 5655 5651 5648 5645 5643 5640 5637 5635 5632 5630 5629 5628 5627 5626
5720 5719 5719 5718 5717 5715 5714 5713 5712 5710 5708 5706 5704 5701 5698 5696 5693 5690 5688 5685 5682 5679 5675 5672 5668 5665 5662 5658 5655 5652 5648 5645 5642 5639 5636 5633 5630 5628 5626 5624 5623 5621 5620
5718 5717 5716 5715 5714 5713 5712 5711 5710 5708 5706 5704 5701 5699 5696 5694 5691 5688 5685 5682 5679 5676 5672 5669 5665 5662 5658 5655 5652 5648 5645 5641 5638 5635 5632 5629 5626 5624 5621 5619 5617 5615 5614
5716 5715 5714 5713 5713 5712 5711 5709 5708 5706 5704 5702 5699 5697 5694 5691 5688 5686 5683 5680 5676 5673 5669 5666 5662 5658 5655 5651 5648 5644 5641 5637 5634 5631 5627 5624 5621 5619 5616 5613 5611 5609 5607
5714 5713 5713 5712 5711 5710 5709 5708 5706 5705 5702 5700 5697 5695 5692 5689 5686 5683 5680 5677 5674 5670 5666 5663 5659 5655 5651 5648 5644 5640 5637 5633 5629 5626 5622 5619 5616 5613 5610 5608 5605 5603 5601
5713 5712 5712 5711 5710 5709 5708 5706 5705 5703 5701 5698 5695 5692 5689 5687 5684 5681 5677 5674 5671 5667 5663 5660 5656 5652 5648 5644 5640 5636 5632 5629 5625 5621 5617 5614 5610 5607 5604 5602 5599 5596 5594
5713 5712 5711 5710 5709 5708 5706 5705 5703 5701 5699 5696 5694 5691 5688 5685 5681 5678 5675 5671 5668 5664 5660 5656 5652 5648 5644 5640 5636 5632 5628 5624 5620 5616 5612 5608 5605 5602 5599 5596 5593 5590 5587
5712 5711 5710 5709 5708 5707 5705 5703 5702 5699 5697 5694 5692 5689 5685 5682 5679 5676 5672 5668 5665 5661 5657 5653 5649 5644 5640 5636 5631 5627 5623 5618 5614 5611 5607 5603 5600 5596 5593 5590 5587 5584 5581
5711 5710 5709 5708 5707 5705 5704 5702 5700 5698 5695 5692 5689 5686 5683 5680 5676 5673 5669 5665 5661 5658 5653 5649 5645 5640 5636 5631 5627 5622 5618 5614 5610 5605 5602 5598 5594 5591 5588 5584 5581 5578 5575
5711 5710 5708 5707 5706 5704 5702 5700 5698 5696 5693 5690 5687 5684 5681 5678 5674 5670 5667 5663 5659 5654 5650 5646 5641 5636 5632 5627 5623 5618 5614 5609 5605 5601 5597 5593 5589 5585 5582 5578 5575 5572 5569
5710 5708 5707 5706 5705 5703 5701 5699 5697 5694 5691 5688 5685 5682 5679 5675 5672 5668 5664 5660 5656 5651 5647 5642 5637 5633 5628 5624 5619 5614 5610 5605 5600 5596 5592 5588 5584 5580 5576 5573 5569 5565 5562
5708 5707 5706 5705 5703 5702 5699 5697 5695 5692 5690 5687 5684 5680 5677 5673 5670 5666 5662 5658 5653 5648 5644 5639 5634 5629 5625 5620 5615 5610 5605 5600 5596 5591 5587 5583 5579 5574 5570 5567 5563 5559 5555
5707 5706 5705 5704 5702 5700 5698 5696 5693 5691 5688 5685 5682 5679 5675 5671 5667 5664 5659 5655 5650 5645 5640 5635 5631 5626 5621 5616 5611 5606 5601 5596 5591 5586 5582 5577 5573 5568 5564 5560 5556 5552 5549
5706 5705 5704 5702 5701 5699 5697 5695 5692 5690 5687 5684 5680 5677 5673 5669 5665 5661 5657 5652 5647 5642 5637 5632 5627 5622 5617 5612 5606 5601 5596 5591 5586 5581 5576 5572 5567 5562 5558 5554 5549 5546 5542